Location: Centerville
(32.8776°N, 96.6203°W)
Time: 02:28:27
(UTC+00:00)

Cosmos 2263 - Pass Details

Date: 17 June 2021
Orbit: 831 x 865 km, 70.9° (Epoch: 27 July)

Event Time Altitude Azimuth Distance (km) Brightness Sun altitude
Rises 08:11:49 0° 342° (NNW) 3,411 8.0 -28.5°
Reaches altitude 10° 08:14:18 10° 346° (NNW) 2,468 7.2 -28.2°
Maximum altitude 08:19:56 66° 68° (ENE) 911 4.4 -27.7°
Enters shadow 08:21:07 52° 123° (ESE) 1,030 4.5 -27.5°
